Weather History for LEMO - November, 2013

Change the Weather History Date:

Monday, November 4, 2013

  Actual Average Record
Temperature  
Mean Temperature 58 °F -  
Max Temperature 66 °F 64 °F 82 °F (2010)
Min Temperature 50 °F 46 °F 42 °F (2000)
Degree Days  
Heating Degree Days 7    
Growing Degree Days 8 (Base 50)    
Moisture  
Dew Point 52 °F    
Average Humidity 79    
Maximum Humidity 100    
Minimum Humidity 56    
Precipitation  
Precipitation 0.00 in - - ()
Sea Level Pressure  
Sea Level Pressure 30.17 in    
Wind  
Wind Speed 4 mph ()    
Max Wind Speed 12 mph    
Max Gust Speed -    
Visibility 6.0 miles    
Events      
Averages and records for this station are not official NWS values.
T = Trace of Precipitation, MM = Missing Value Source: Averaged Metar Reports

Daily Weather History Graph

Daily Weather History Graph

Search for Another Location

Airport or City:

Trip Planner

Search our weather history database for the weather conditions in past years. The results will help you decide how hot, cold, wet, or windy it might be!

Date:

Astronomy

Nov. 04, 2013 Rise Set
Actual Time 7:49 AM CET 6:21 PM CET
Civil Twilight 7:22 AM CET 6:48 PM CET
Nautical Twilight 6:51 AM CET 7:19 PM CET
Astronomical Twilight 6:21 AM CET 7:50 PM CET
Moon 8:43 AM CET (11/4) 7:15 PM CET (11/4)
Length of Visible Light 11h 25m
Length of Day
10h 31m
New Moon, 1% of the Moon is Illuminated
Nov 4
New Moon
Nov 10
First Quarter
Nov 17
Full
Nov 25
Last Quarter
Dec 3
New

Hourly Weather History & Observations

Time (CET) Temp. Dew Point Humidity Pressure Visibility Wind Dir Wind Speed Gust Speed Precip Events Conditions
12:00 AM 57.2 °F 51.8 °F 82% 30.18 in - Calm Calm - N/A   Clear
1:00 AM 53.6 °F 51.8 °F 94% 30.15 in - South 2.3 mph - N/A   Clear
2:00 AM 51.8 °F 50.0 °F 94% 30.15 in - Calm Calm - N/A   Clear
3:00 AM 51.8 °F 51.8 °F 100% 30.15 in - South 2.3 mph - N/A   Clear
4:00 AM 51.8 °F 50.0 °F 94% 30.15 in - South 3.5 mph - N/A   Clear
5:00 AM 51.8 °F 51.8 °F 100% 30.15 in - South 5.8 mph - N/A   Clear
6:00 AM 51.8 °F 50.0 °F 94% 30.15 in - SSW 5.8 mph - N/A   Clear
7:00 AM 50.0 °F 50.0 °F 100% 30.15 in - SSW 5.8 mph - N/A   Clear
8:00 AM 51.8 °F 50.0 °F 94% 30.21 in 6.2 mi West 3.5 mph - N/A   Partly Cloudy
9:00 AM 53.6 °F 50.0 °F 88% 30.21 in 6.2 mi West 3.5 mph - N/A   Partly Cloudy
10:00 AM 57.2 °F 51.8 °F 82% 30.21 in 6.2 mi West 4.6 mph - N/A   Partly Cloudy
11:00 AM 60.8 °F 51.8 °F 72% 30.21 in 6.2 mi West 8.1 mph - N/A   Partly Cloudy
12:00 PM 62.6 °F 51.8 °F 68% 30.21 in 6.2 mi West 9.2 mph - N/A   Partly Cloudy
1:00 PM 62.6 °F 50.0 °F 63% 30.21 in 6.2 mi West 9.2 mph - N/A   Partly Cloudy
2:00 PM 64.4 °F 50.0 °F 59% 30.18 in 6.2 mi West 9.2 mph - N/A   Partly Cloudy
3:00 PM 64.4 °F 50.0 °F 59% 30.15 in 6.2 mi WNW 9.2 mph - N/A   Scattered Clouds
4:00 PM 66.2 °F 50.0 °F 56% 30.15 in 6.2 mi WNW 9.2 mph - N/A   Scattered Clouds
5:00 PM 66.2 °F 50.0 °F 56% 30.15 in 6.2 mi WNW 9.2 mph - N/A   Scattered Clouds
6:00 PM 64.4 °F 53.6 °F 68% 30.15 in 3.7 mi SSW 9.2 mph - N/A   Mostly Cloudy
7:00 PM 64.4 °F 53.6 °F 68% 30.18 in 6.2 mi West 6.9 mph - N/A   Scattered Clouds
8:00 PM 62.6 °F 53.6 °F 72% 30.18 in 6.2 mi West 6.9 mph - N/A   Scattered Clouds
9:00 PM 62.6 °F 55.4 °F 77% 30.18 in 6.2 mi West 9.2 mph - N/A   Scattered Clouds
10:00 PM 62.6 °F 55.4 °F 77% 30.18 in 6.2 mi West 11.5 mph - N/A   Scattered Clouds
11:00 PM 62.6 °F 57.2 °F 82% 30.18 in 6.2 mi West 9.2 mph - N/A   Scattered Clouds